Regional Weather Roundup
Issued by NWS

Home | Current Version | Previous Version | Graphics & Text | Print | Product List | Glossary Off
Versions: 1 2 3 4 5 6 7 8 9 10 11 12 13 14 15 16 17 18 19 20 21 22 23 24 25 26 27 28 29 30 31 32 33 34 35 36 37 38 39 40 41 42 43 44 45 46 47 48 49 50

000
ASUS45 KTFX 190619
RWRMT
MONTANA HOURLY WEATHER ROUNDUP
NATIONAL WEATHER SERVICE GREAT FALLS MT
1119 PM MST THU DEC 18 2014

NOTE: "FAIR" INDICATES FEW OR NO CLOUDS BELOW 12000 FEET WITH NO
SIGNIFICANT WEATHER AND/OR OBSTRUCTIONS TO VISIBILITY.

* THESE STATIONS ARE NOT UNDER NWS QUALITY CONTROL. THEY DO NOT
   REPORT WEATHER SUCH AS PRECIPITATION OR FOG.

MTZ001>007-043-190700-
WEST OF THE DIVIDE
CITY           SKY/WX    TMP DP  RH WIND       PRES   REMARKS
KALISPELL      FOG       30  28  92 W3        29.98S VSB 1 1/4
MISSOULA       CLOUDY    30  28  92 CALM      30.02R
BUTTE          CLOUDY    23  19  85 SE3       29.99S
MULLAN PASS    FOG       30  27  89 VRB7      29.90F VSB 2 1/2 WCI  23
* ANACONDA     CLEAR     34  21  59 S11        N/A   WCI  26
* ESSEX        N/A       30  29  96 NW2        N/A
* EUREKA APT   MOCLDY    37  32  82 S9        29.96S WCI  30
* HAMILTON APT CLEAR     30  27  89 CALM      30.00R
* LIBBY APT    CLOUDY    32  32 100 CALM      29.98S
* LINCOLN      N/A       29  28  96 SE1        N/A
* LOOKOUT PASS N/A       32  32 100 N/A        N/A
* POLSON       N/A       31  30  96 N/A        N/A
* RONAN APT    MOCLDY    32  30  92 N/A        N/A
* SEELEY LAKE  N/A       27  26  96 N/A        N/A
* THOMP F APT  MOCLDY    25  23  92 SE3        N/A
$$

MTZ008-052>055-190700-
SOUTHWEST MONTANA
CITY           SKY/WX    TMP DP  RH WIND       PRES   REMARKS
BOZEMAN        CLOUDY    27  23  85 CALM      30.00S
DILLON         PTCLDY    28  19  69 S8        30.01F WCI  20
* W YELLOWSTON MOCLDY    25  23  92 W3G10      N/A
* THREE FORKS  PTCLDY    28 -15  14 N/A        N/A
* BOULDER HILL N/A       27  16  63 SW8G14     N/A   WCI  19
* MONIDA PASS  N/A       23  23 100 SE14       N/A   WCI  10
* RAYNOLDS PAS N/A       24   8  50 S13        N/A   WCI  12
* WHITEHALL    N/A       31  22  69 NE3G11     N/A
* WISE RIVER   N/A       23  20  88 SE2        N/A
$$

MTZ009>010-012-014-046-048-049-054-190700-
EAST SLOPES AND CENTRAL MONTANA
CITY           SKY/WX    TMP DP  RH WIND       PRES   REMARKS
GREAT FALLS    PTCLDY    32  27  82 SW14      29.90S WCI  22
HELENA         MOCLDY    25  21  85 CALM      29.98S
MALMSTROM AFB  CLEAR     32  27  82 SW12      29.92S WCI  23
* CONRAD       PTCLDY    32  25  75 CALM       N/A
* DEARBORN     N/A       36  25  64 S9G16      N/A   WCI  29
* EAST GLACIER N/A       34  23  64 W23G34     N/A   WCI  22
* MONARCH      N/A       32  17  54 SW14       N/A   WCI  22
* PENDROY      N/A       28  18  66 NW8        N/A   WCI  20
* ROGERS PASS  N/A       31  26  82 SE11G25    N/A   WCI  22
* SWEET GRASS  N/A       32  25  75 SW12       N/A   WCI  23
* WHITE SULPH  N/A       32  21  64 S8G15      N/A   WCI  25
$$

MTZ011-013-016-021-035-040-045-047-050-051-190700-
NORTH CENTRAL MONTANA
CITY           SKY/WX    TMP DP  RH WIND       PRES   REMARKS
HAVRE          PTCLDY    28  25  89 SW12      29.90S WCI  18
LEWISTOWN      CLEAR     36  23  59 W14       29.92S WCI  27
* N BAR RANCH  CLEAR     30  21  69 SW7       29.93R WCI  23
* CHINOOK      PTCLDY    12  10  92 CALM      29.93R
* MALTA APT    CLEAR     19  14  81 N/A        N/A
* CHESTER      N/A       22  20  92 W1         N/A
* DENTON       N/A       31  24  75 N/A        N/A
* GEYSER       N/A       36  21  54 SW22G30    N/A   WCI  25
* JUDITH GAP   N/A       30  19  64 SE7        N/A   WCI  23
* LOMA         N/A       33  26  75 W4         N/A
$$

MTZ017>020-022>027-061-062-190700-
NORTHEAST MONTANA
CITY           SKY/WX    TMP DP  RH WIND       PRES   REMARKS
GLASGOW        MOCLDY    21  19  92 CALM      29.91R
GLENDIVE       CLOUDY    28  25  89 S8        29.93S WCI  20
JORDAN         PTCLDY    28  25  89 W7        29.92R WCI  21
SIDNEY         PTCLDY    21  18  88 CALM      29.94S
WOLF POINT     FOG       18  18 100 CALM      29.93S VSB M1/4
* BEAVER HILL  N/A       31  24  75 SW10       N/A   WCI  22
* CIRCLE       N/A       31  28  89 N/A        N/A
* LINDSAY DVD  N/A       34  27  76 SW4        N/A
* NAVAJO       N/A       19  17  92 N/A        N/A
* PLENTYWOOD A CLEAR     25  25 100 W5        29.91R VSB M1/4 WCI  19
* POPLAR APT   PTCLDY    18  16  92 CALM      29.93R VSB M1/4
* SACO         N/A       19  17  92 S2         N/A
$$

MTZ028>042-056>058-190700-
SOUTHCENTRAL AND SOUTHEAST MONTANA
CITY           SKY/WX    TMP DP  RH WIND       PRES   REMARKS
BAKER          CLOUDY    34  25  70 SW13      29.94S WCI  25
BILLINGS       PTCLDY    30  19  64 SW16      29.98R WCI  19
LIVINGSTON     CLOUDY    39  21  48 SW24G38   29.95F WCI  28
MILES CITY     PTCLDY    27  23  85 S6        29.95S WCI  20
* FORSYTH APT  CLEAR     34  21  59 SW6       29.96R WCI  29
* LAUREL APT   PTCLDY    34  14  44 SW13       N/A   WCI  25
* ROUNDUP APT  PTCLDY    32  19  59 N/A        N/A
* ALZADA       N/A       24  19  81 W4         N/A
* HYSHAM       N/A       31  18  59 W4         N/A
* LAME DEER    N/A       34  16  48 W6         N/A   WCI  29
* REED POINT   N/A       25  21  85 S1         N/A
* ROSCOE HILL  N/A       36   6  28 S10G22     N/A   WCI  29
$$

REGIONAL REPORTS...DAKOTAS
CITY           SKY/WX    TMP DP  RH WIND       PRES   REMARKS
WILLISTON      FOG       28  27  96 S3        29.93R VSB 1/2
DICKINSON      PTCLDY    27  21  78 SW6       29.91S WCI  20
BEACH          CLOUDY    32  27  82 SW12      29.93R WCI  23
CROSBY         CLOUDY    27  27 100 W9        29.93R WCI  18
TIOGA          FOG       27  27 100 SW3       29.94S VSB M1/4
WATFORD CITY   FOG       19  18  96 CALM      29.91R VSB M1/4
BISMARCK       CLOUDY    27  25  92 S5        30.01R WCI  21
GRAND FORKS    CLOUDY    19  16  88 S12       30.14F WCI   6
FARGO          LGT SNOW  21  18  88 SE13      30.16F VSB 3    WCI   8
BUFFALO SD     PTCLDY    27  21  78 W10       29.89S WCI  18
RAPID CITY     CLEAR     27  18  69 W6        30.01S WCI  20
$$

REGIONAL REPORTS...WYOMING/IDAHO/WASHINGTON
CITY           SKY/WX    TMP DP  RH WIND       PRES   REMARKS
GILLETTE       PTCLDY    28  16  61 SW13      29.99S WCI  17
SHERIDAN       CLEAR     21  10  62 CALM      29.98R
CODY           PTCLDY    36  18  48 SW13G24   30.00R WCI  27
YELLOWSTONE LA CLOUDY    23  18  81 CALM      30.08R
SALMON         CLOUDY    27  21  78 CALM      30.08S
MULLAN PASS    FOG       30  27  89 VRB7      29.90S VSB 2 1/2 WCI  23
SAND POINT     CLOUDY    34  34 100 N3        29.97S
SPOKANE        FOG       37  37 100 E5        29.92F WCI  33
$$

REGIONAL REPORTS...ALBERTA
CITY           SKY/WX    TMP DP  RH WIND       PRES   REMARKS
CALGARY        N/A       28  19  69 S3        29.77S
LETHBRIDGE     CLEAR     27  23  85 SW14      29.84S WCI  16
MEDICINE HAT   FAIR      16  14  92 VRB2      29.85S
EDMONTON       N/A       12   9  88 SE6       29.81F WCI   2
WATERTON GATE  N/A       36  25  64 SW14G21    N/A   WCI  27
CARDSTON       N/A       27  23  85 SW7        N/A   WCI  19
MILK RIVER     N/A       25  23  92 NW3        N/A
$$

REGIONAL REPORTS...SASKATCHEWAN
CITY           SKY/WX    TMP DP  RH WIND       PRES   REMARKS
SWIFT CURRENT  CLEAR     19  18  96 W7        29.85S WCI  10
REGINA         FOG       23  23 100 SW5       29.90S VSB 1/2  WCI  16
VAL MARIE      N/A       12  10  92 CALM       N/A
ASSINIBOIA     N/A       16  14  92 W3         N/A
CORONACH       N/A       18  16  92 SW2        N/A

$$




USA.gov is the U.S. government's official web portal to all federal, state and local government web resources and services.